Station Historical Data
Daily Summary for February 6, 2017 Units:  Metric    English   Both
« Previous Day
Next Day »
Daily Weekly Monthly Yearly Custom
  High: Low: Average:
Temperature: 8.4 °C 6.1 °C 7.6 °C
Dew Point: 7.7 °C 5.4 °C 6.8 °C
Humidity: 95 % 94 % 95 %
Wind Speed: 41.8 km/h 0 km/h 17.5 km/h
Wind Gust: 53.1 km/h - -
Wind:- - South
Pressure: 1014.1 hPa 1008.7 hPa -
Precipitation: 0 mm    
Historical Graphs
 
 
Tabular Data for February 6, 2017
Time Temperature Dew Point Pressure Wind Wind Speed Wind Gust Humidity Rainfall Rate (Hourly) solar
00:04 6.9 °C 6.1 °C 1009 hPa SSE 11.3 km/h 37 km/h 94 % 0 mm 0.00 W/m2
00:09 6.9 °C 6.1 °C 1009 hPa SSE 22.5 km/h 43.5 km/h 94 % 0 mm 0.00 W/m2
00:14 6.9 °C 6.1 °C 1009 hPa SSE 17.7 km/h 37 km/h 94 % 0 mm 0.00 W/m2
00:19 7 °C 6.1 °C 1009 hPa SE 8 km/h 27.4 km/h 94 % 0 mm 0.00 W/m2
00:24 7 °C 6.1 °C 1009 hPa South 35.4 km/h 35.4 km/h 94 % 0 mm 0.00 W/m2
00:29 7 °C 6.1 °C 1009 hPa South 19.3 km/h 33.8 km/h 94 % 0 mm 0.00 W/m2
00:34 7 °C 6.1 °C 1009 hPa SSE 11.3 km/h 35.4 km/h 94 % 0 mm 0.00 W/m2
00:39 7 °C 6.1 °C 1009 hPa SSE 14.5 km/h 29 km/h 94 % 0 mm 0.00 W/m2
00:44 7 °C 6.1 °C 1009 hPa SE 19.3 km/h 25.7 km/h 94 % 0 mm 0.00 W/m2
00:49 7 °C 6.1 °C 1009 hPa South 11.3 km/h 22.5 km/h 94 % 0 mm 0.00 W/m2
00:55 7 °C 6.1 °C 1009 hPa South 9.7 km/h 22.5 km/h 94 % 0 mm 0.00 W/m2
01:00 7 °C 6.1 °C 1008.7 hPa Calm   29 km/h 94 % 0 mm 0.00 W/m2
01:05 7 °C 6.1 °C 1008.7 hPa South 14.5 km/h 29 km/h 94 % 0 mm 0.00 W/m2
01:10 7 °C 6.1 °C 1008.7 hPa South 12.9 km/h 25.7 km/h 94 % 5.59 mm 0.00 W/m2
01:15 7 °C 6.1 °C 1009 hPa SSE 22.5 km/h 32.2 km/h 94 % 6.35 mm 0.00 W/m2
01:20 7 °C 6.1 °C 1009 hPa Calm   37 km/h 94 % 5.59 mm 0.00 W/m2
01:25 7 °C 6.1 °C 1009 hPa South 11.3 km/h 27.4 km/h 94 % 3.3 mm 0.00 W/m2
01:30 7.1 °C 6.2 °C 1009.4 hPa SSE 17.7 km/h 25.7 km/h 94 % 3.56 mm 0.00 W/m2
01:35 7 °C 6.1 °C 1009.4 hPa SSE 14.5 km/h 27.4 km/h 94 % 3.3 mm 0.00 W/m2
01:40 7.1 °C 6.2 °C 1009.4 hPa South 19.3 km/h 27.4 km/h 94 % 2.29 mm 0.00 W/m2
01:45 7.1 °C 6.2 °C 1009.7 hPa SW 20.9 km/h 40.2 km/h 94 % 1.27 mm 0.00 W/m2
01:50 7.1 °C 6.2 °C 1009.4 hPa SSW 25.7 km/h 25.7 km/h 94 % 1.02 mm 0.00 W/m2
01:55 7.1 °C 6.2 °C 1009.7 hPa South 19.3 km/h 25.7 km/h 94 % 0 mm 0.00 W/m2
02:00 7.1 °C 6.2 °C 1009.7 hPa South 14.5 km/h 35.4 km/h 94 % 0 mm 0.00 W/m2
02:05 7.1 °C 6.2 °C 1009.4 hPa South 14.5 km/h 24.1 km/h 94 % 0 mm 0.00 W/m2
02:10 7.1 °C 6.2 °C 1009.4 hPa SSW 12.9 km/h 30.6 km/h 94 % 0 mm 0.00 W/m2
02:15 7.1 °C 6.2 °C 1009.7 hPa South 11.3 km/h 24.1 km/h 94 % 1.02 mm 0.00 W/m2
02:20 7.1 °C 6.2 °C 1009.7 hPa SSE 16.1 km/h 25.7 km/h 94 % 1.02 mm 0.00 W/m2
02:25 7.1 °C 6.2 °C 1009.7 hPa South 12.9 km/h 24.1 km/h 94 % 1.02 mm 0.00 W/m2
02:30 7.1 °C 6.2 °C 1009.7 hPa Calm   19.3 km/h 94 % 0 mm 0.00 W/m2
02:35 7.1 °C 6.2 °C 1009.7 hPa SSE 8 km/h 29 km/h 94 % 0 mm 0.00 W/m2
02:40 7.1 °C 6.2 °C 1010 hPa South 25.7 km/h 30.6 km/h 94 % 0 mm 0.00 W/m2
02:45 7.1 °C 6.2 °C 1010 hPa South 4.8 km/h 24.1 km/h 94 % 0 mm 0.00 W/m2
02:50 7.1 °C 6.2 °C 1009.7 hPa South 12.9 km/h 25.7 km/h 94 % 0 mm 0.00 W/m2
02:55 7.1 °C 6.2 °C 1009.7 hPa South 12.9 km/h 29 km/h 94 % 0 mm 0.00 W/m2
03:00 7.1 °C 6.2 °C 1009.7 hPa South 22.5 km/h 27.4 km/h 94 % 0 mm 0.00 W/m2
03:05 7.1 °C 6.2 °C 1010 hPa SSW 14.5 km/h 30.6 km/h 94 % 0 mm 0.00 W/m2
03:10 7.2 °C 6.3 °C 1010 hPa SW 20.9 km/h 25.7 km/h 94 % 0 mm 0.00 W/m2
03:15 7.2 °C 6.3 °C 1010 hPa South 6.4 km/h 35.4 km/h 94 % 0 mm 0.00 W/m2
03:20 7.2 °C 6.3 °C 1009.7 hPa South 3.2 km/h 24.1 km/h 94 % 1.52 mm 0.00 W/m2
03:25 7.2 °C 6.3 °C 1009.7 hPa SSW 11.3 km/h 22.5 km/h 94 % 1.52 mm 0.00 W/m2
03:30 7.2 °C 6.3 °C 1009.7 hPa SSW 16.1 km/h 29 km/h 94 % 1.78 mm 0.00 W/m2
03:35 7.2 °C 6.5 °C 1010 hPa SSE 17.7 km/h 27.4 km/h 95 % 1.78 mm 0.00 W/m2
03:40 7.2 °C 6.5 °C 1010 hPa SSW 9.7 km/h 17.7 km/h 95 % 2.03 mm 0.00 W/m2
03:45 7.2 °C 6.5 °C 1010.4 hPa SW 19.3 km/h 32.2 km/h 95 % 2.29 mm 0.00 W/m2
03:50 7.2 °C 6.5 °C 1010 hPa SW 8 km/h 33.8 km/h 95 % 3.3 mm 0.00 W/m2
03:55 7.2 °C 6.5 °C 1010 hPa South 1.6 km/h 17.7 km/h 95 % 1.52 mm 0.00 W/m2
04:00 7.2 °C 6.5 °C 1010 hPa South 14.5 km/h 22.5 km/h 95 % 1.02 mm 0.00 W/m2
04:05 7.3 °C 6.6 °C 1010 hPa SSW 12.9 km/h 27.4 km/h 95 % 0 mm 0.00 W/m2
04:10 7.3 °C 6.6 °C 1010 hPa South 20.9 km/h 30.6 km/h 95 % 0 mm 0.00 W/m2
04:15 7.3 °C 6.6 °C 1010 hPa SSW 19.3 km/h 22.5 km/h 95 % 9.91 mm 0.00 W/m2
04:20 7.3 °C 6.6 °C 1010 hPa SW 11.3 km/h 32.2 km/h 95 % 3.05 mm 0.00 W/m2
04:25 7.3 °C 6.6 °C 1010 hPa SSW 16.1 km/h 35.4 km/h 95 % 1.27 mm 0.00 W/m2
04:30 7.3 °C 6.6 °C 1010 hPa SSW 4.8 km/h 20.9 km/h 95 % 1.02 mm 0.00 W/m2
04:35 7.3 °C 6.6 °C 1010 hPa SSW 3.2 km/h 25.7 km/h 95 % 0 mm 0.00 W/m2
04:40 7.4 °C 6.7 °C 1010 hPa SSW 8 km/h 20.9 km/h 95 % 0 mm 0.00 W/m2
04:45 7.4 °C 6.7 °C 1010 hPa South 9.7 km/h 27.4 km/h 95 % 4.57 mm 0.00 W/m2
04:50 7.4 °C 6.7 °C 1010 hPa Calm   27.4 km/h 95 % 2.03 mm 0.00 W/m2
04:55 7.4 °C 6.7 °C 1010.4 hPa SSW 6.4 km/h 20.9 km/h 95 % 19.3 mm 0.00 W/m2
05:00 7.4 °C 6.7 °C 1010.4 hPa SSE 16.1 km/h 29 km/h 95 % 3.05 mm 0.00 W/m2
05:05 7.4 °C 6.7 °C 1010.4 hPa SSW 11.3 km/h 25.7 km/h 95 % 1.52 mm 0.00 W/m2
05:10 7.5 °C 6.8 °C 1010.4 hPa SW 3.2 km/h 30.6 km/h 95 % 1.02 mm 0.00 W/m2
05:15 7.5 °C 6.8 °C 1010.7 hPa SSW 14.5 km/h 37 km/h 95 % 0 mm 0.00 W/m2
05:20 7.5 °C 6.8 °C 1010.7 hPa SSW 16.1 km/h 29 km/h 95 % 0 mm 0.00 W/m2
05:25 7.5 °C 6.8 °C 1010.7 hPa SSW 20.9 km/h 30.6 km/h 95 % 0 mm 0.00 W/m2
05:30 7.6 °C 6.8 °C 1010.7 hPa Calm   30.6 km/h 95 % 0 mm 0.00 W/m2
05:35 7.6 °C 6.8 °C 1010.7 hPa SSW 25.7 km/h 37 km/h 95 % 0 mm 0.00 W/m2
05:40 7.6 °C 6.8 °C 1010.7 hPa SSE 6.4 km/h 33.8 km/h 95 % 0 mm 0.00 W/m2
05:45 7.5 °C 6.8 °C 1010.7 hPa SW 22.5 km/h 29 km/h 95 % 0 mm 0.00 W/m2
05:50 7.5 °C 6.8 °C 1010.7 hPa SSW 25.7 km/h 35.4 km/h 95 % 0 mm 0.00 W/m2
05:55 7.5 °C 6.8 °C 1010.7 hPa South 9.7 km/h 27.4 km/h 95 % 0 mm 0.00 W/m2
06:00 7.5 °C 6.8 °C 1010.4 hPa Calm   30.6 km/h 95 % 0 mm 0.00 W/m2
06:05 7.5 °C 6.8 °C 1010.4 hPa SSW 19.3 km/h 41.8 km/h 95 % 0 mm 0.00 W/m2
06:10 7.5 °C 6.8 °C 1010 hPa South 25.7 km/h 30.6 km/h 95 % 0 mm 0.00 W/m2
06:15 7.5 °C 6.8 °C 1010 hPa South 17.7 km/h 38.6 km/h 95 % 0 mm 0.00 W/m2
06:20 7.5 °C 6.8 °C 1010 hPa South 14.5 km/h 32.2 km/h 95 % 0 mm 0.00 W/m2
06:25 7.5 °C 6.8 °C 1010 hPa South 8 km/h 32.2 km/h 95 % 0 mm 0.00 W/m2
06:30 7.5 °C 6.8 °C 1010.4 hPa South 9.7 km/h 32.2 km/h 95 % 0 mm 0.00 W/m2
06:35 7.5 °C 6.8 °C 1010.4 hPa SSW 25.7 km/h 33.8 km/h 95 % 0 mm 0.00 W/m2
06:40 7.5 °C 6.8 °C 1010.4 hPa South 20.9 km/h 29 km/h 95 % 0 mm 0.00 W/m2
06:45 7.5 °C 6.8 °C 1010.7 hPa SSW 27.4 km/h 37 km/h 95 % 0 mm 0.00 W/m2
06:50 7.6 °C 6.8 °C 1010.7 hPa South 12.9 km/h 35.4 km/h 95 % 0 mm 0.00 W/m2
06:55 7.6 °C 6.8 °C 1010.4 hPa SSE 11.3 km/h 29 km/h 95 % 0 mm 0.00 W/m2
07:00 7.6 °C 6.8 °C 1010.7 hPa SE 17.7 km/h 35.4 km/h 95 % 0 mm 0.00 W/m2
07:05 7.6 °C 6.8 °C 1010.7 hPa South 16.1 km/h 27.4 km/h 95 % 0 mm 0.00 W/m2
07:10 7.6 °C 6.8 °C 1010.7 hPa South 29 km/h 32.2 km/h 95 % 0 mm 0.00 W/m2
07:15 7.6 °C 6.8 °C 1010.7 hPa SSE 16.1 km/h 33.8 km/h 95 % 0 mm 0.00 W/m2
07:20 7.7 °C 6.9 °C 1010.7 hPa SSW 16.1 km/h 33.8 km/h 95 % 0 mm 0.00 W/m2
07:25 7.7 °C 6.9 °C 1011.1 hPa South 24.1 km/h 43.5 km/h 95 % 0 mm 5.00 W/m2
07:30 7.7 °C 6.9 °C 1011.1 hPa South 27.4 km/h 35.4 km/h 95 % 0 mm 0.00 W/m2
07:35 7.7 °C 6.9 °C 1011.1 hPa South 8 km/h 32.2 km/h 95 % 9.65 mm 0.00 W/m2
07:40 7.7 °C 6.9 °C 1011.1 hPa SSW 27.4 km/h 33.8 km/h 95 % 2.29 mm 5.00 W/m2
07:45 7.7 °C 6.9 °C 1011.1 hPa SE 32.2 km/h 45.1 km/h 95 % 1.27 mm 11.00 W/m2
07:50 7.7 °C 6.9 °C 1011.4 hPa South 8 km/h 33.8 km/h 95 % 1.27 mm 7.00 W/m2
07:55 7.7 °C 6.9 °C 1011.4 hPa SSW 8 km/h 37 km/h 95 % 1.27 mm 12.00 W/m2
08:00 7.7 °C 6.9 °C 1011.4 hPa SSW 20.9 km/h 32.2 km/h 95 % 1.27 mm 11.00 W/m2
08:05 7.8 °C 7.1 °C 1011.4 hPa South 9.7 km/h 40.2 km/h 95 % 1.27 mm 11.00 W/m2
08:10 7.7 °C 6.9 °C 1011.4 hPa South 40.2 km/h 40.2 km/h 95 % 1.27 mm 12.00 W/m2
08:15 7.8 °C 7.1 °C 1011.7 hPa SSE 8 km/h 35.4 km/h 95 % 3.05 mm 9.00 W/m2
08:20 7.8 °C 7.1 °C 1011.7 hPa South 19.3 km/h 38.6 km/h 95 % 8.38 mm 14.00 W/m2
08:25 7.8 °C 7.1 °C 1011.4 hPa SSW 19.3 km/h 30.6 km/h 95 % 3.56 mm 23.00 W/m2
08:30 7.8 °C 7.1 °C 1011.4 hPa South 20.9 km/h 40.2 km/h 95 % 2.03 mm 18.00 W/m2
08:35 7.8 °C 7.1 °C 1011.7 hPa SSW 14.5 km/h 30.6 km/h 95 % 1.52 mm 21.00 W/m2
08:36 7.8 °C 7.1 °C 1011.4 hPa SSE 16.1 km/h 30.6 km/h 95 % 1.52 mm 19.00 W/m2
08:41 7.8 °C 7.1 °C 1011.4 hPa South 33.8 km/h 40.2 km/h 95 % 1.52 mm 23.00 W/m2
08:46 7.8 °C 7.1 °C 1011.4 hPa SSW 24.1 km/h 24.1 km/h 95 % 1.78 mm 23.00 W/m2
08:51 7.9 °C 7.1 °C 1011.4 hPa South 16.1 km/h 40.2 km/h 95 % 1.52 mm 16.00 W/m2
08:56 7.8 °C 7.1 °C 1011.4 hPa SSW 16.1 km/h 38.6 km/h 95 % 1.02 mm 19.00 W/m2
09:01 7.9 °C 7.1 °C 1011.7 hPa SSW 14.5 km/h 38.6 km/h 95 % 1.02 mm 25.00 W/m2
09:06 7.9 °C 7.1 °C 1011.7 hPa SSE 9.7 km/h 33.8 km/h 95 % 1.02 mm 26.00 W/m2
09:11 7.9 °C 7.2 °C 1011.7 hPa South 30.6 km/h 41.8 km/h 95 % 1.02 mm 42.00 W/m2
09:16 7.9 °C 7.2 °C 1011.7 hPa South 14.5 km/h 14.5 km/h 95 % 0 mm 30.00 W/m2
09:21 7.9 °C 7.2 °C 1011.7 hPa South 27.4 km/h 40.2 km/h 95 % 3.56 mm 30.00 W/m2
09:26 7.9 °C 7.2 °C 1011.7 hPa SSW 16.1 km/h 37 km/h 95 % 3.56 mm 33.00 W/m2
09:31 7.9 °C 7.2 °C 1012.1 hPa South 19.3 km/h 37 km/h 95 % 1.52 mm 56.00 W/m2
09:36 7.9 °C 7.2 °C 1012.1 hPa South 14.5 km/h 49.9 km/h 95 % 1.27 mm 35.00 W/m2
09:41 7.9 °C 7.2 °C 1012.1 hPa SW 12.9 km/h 38.6 km/h 95 % 1.78 mm 30.00 W/m2
09:46 7.9 °C 7.2 °C 1012.4 hPa SW 6.4 km/h 33.8 km/h 95 % 4.83 mm 19.00 W/m2
09:51 7.9 °C 7.2 °C 1012.8 hPa SW 9.7 km/h 16.1 km/h 95 % 3.3 mm 32.00 W/m2
09:56 7.9 °C 7.2 °C 1012.8 hPa South 1.6 km/h 38.6 km/h 95 % 1.78 mm 30.00 W/m2
10:01 8 °C 7.2 °C 1012.4 hPa SSE 6.4 km/h 38.6 km/h 95 % 1.78 mm 32.00 W/m2
10:06 8 °C 7.2 °C 1012.8 hPa SW 16.1 km/h 27.4 km/h 95 % 1.78 mm 25.00 W/m2
10:11 8.1 °C 7.3 °C 1012.8 hPa SSW 27.4 km/h 27.4 km/h 95 % 5.59 mm 72.00 W/m2
10:16 8.1 °C 7.3 °C 1012.8 hPa SSW 19.3 km/h 30.6 km/h 95 % 3.56 mm 58.00 W/m2
10:21 8.2 °C 7.4 °C 1012.8 hPa SSE 14.5 km/h 30.6 km/h 95 % 11.68 mm 37.00 W/m2
10:26 8.2 °C 7.4 °C 1012.8 hPa SSW 20.9 km/h 37 km/h 95 % 2.54 mm 98.00 W/m2
10:31 8.2 °C 7.5 °C 1012.8 hPa SE 14.5 km/h 53.1 km/h 95 % 1.52 mm 74.00 W/m2
10:36 8.3 °C 7.5 °C 1012.8 hPa South 20.9 km/h 40.2 km/h 95 % 1.52 mm 47.00 W/m2
10:41 8.2 °C 7.5 °C 1012.8 hPa South 17.7 km/h 38.6 km/h 95 % 1.52 mm 56.00 W/m2
10:46 8.3 °C 7.5 °C 1012.8 hPa SSE 20.9 km/h 33.8 km/h 95 % 1.27 mm 51.00 W/m2
10:51 8.3 °C 7.5 °C 1012.8 hPa SW 16.1 km/h 33.8 km/h 95 % 1.27 mm 51.00 W/m2
10:56 8.3 °C 7.5 °C 1012.8 hPa SSW 8 km/h 33.8 km/h 95 % 1.52 mm 40.00 W/m2
11:01 8.3 °C 7.5 °C 1012.8 hPa SSE 14.5 km/h 48.3 km/h 95 % 12.19 mm 26.00 W/m2
11:06 8.3 °C 7.5 °C 1012.8 hPa Calm   33.8 km/h 95 % 5.84 mm 63.00 W/m2
11:11 8.3 °C 7.5 °C 1012.8 hPa SSE 6.4 km/h 25.7 km/h 95 % 2.29 mm 54.00 W/m2
11:16 8.3 °C 7.6 °C 1013.1 hPa SSW 17.7 km/h 17.7 km/h 95 % 2.29 mm 49.00 W/m2
11:21 8.3 °C 7.6 °C 1013.1 hPa SW 32.2 km/h 37 km/h 95 % 1.52 mm 46.00 W/m2
11:26 8.3 °C 7.6 °C 1013.1 hPa WSW 19.3 km/h 38.6 km/h 95 % 1.27 mm 56.00 W/m2
11:31 8.3 °C 7.6 °C 1012.8 hPa South 16.1 km/h 30.6 km/h 95 % 2.29 mm 83.00 W/m2
11:36 8.3 °C 7.6 °C 1012.8 hPa South 8 km/h 30.6 km/h 95 % 2.54 mm 37.00 W/m2
11:41 8.3 °C 7.6 °C 1012.8 hPa SSE 19.3 km/h 40.2 km/h 95 % 6.86 mm 67.00 W/m2
11:46 8.3 °C 7.6 °C 1012.8 hPa South 20.9 km/h 33.8 km/h 95 % 2.54 mm 90.00 W/m2
11:51 8.3 °C 7.6 °C 1012.8 hPa SW 17.7 km/h 38.6 km/h 95 % 1.52 mm 54.00 W/m2
11:56 8.3 °C 7.6 °C 1012.8 hPa WSW 6.4 km/h 38.6 km/h 95 % 1.52 mm 70.00 W/m2
12:01 8.4 °C 7.6 °C 1012.8 hPa SSE 16.1 km/h 25.7 km/h 95 % 1.52 mm 60.00 W/m2
12:06 8.4 °C 7.6 °C 1012.4 hPa South 14.5 km/h 32.2 km/h 95 % 1.52 mm 72.00 W/m2
12:11 8.4 °C 7.7 °C 1012.4 hPa SSW 6.4 km/h 12.9 km/h 95 % 4.57 mm 40.00 W/m2
12:16 8.4 °C 7.7 °C 1012.4 hPa SSW 6.4 km/h 22.5 km/h 95 % 28.45 mm 37.00 W/m2
12:21 8.4 °C 7.6 °C 1012.4 hPa South 25.7 km/h 27.4 km/h 95 % 13.21 mm 30.00 W/m2
12:26 8.4 °C 7.6 °C 1012.4 hPa South 27.4 km/h 43.5 km/h 95 % 2.54 mm 39.00 W/m2
12:31 8.4 °C 7.6 °C 1012.4 hPa SE 3.2 km/h 9.7 km/h 95 % 2.54 mm 39.00 W/m2
12:36 8.3 °C 7.6 °C 1012.8 hPa SSE 19.3 km/h 41.8 km/h 95 % 2.03 mm 32.00 W/m2
12:41 8.3 °C 7.6 °C 1012.8 hPa SSW 4.8 km/h 45.1 km/h 95 % 2.03 mm 32.00 W/m2
12:46 8.3 °C 7.6 °C 1012.8 hPa SSW 40.2 km/h 48.3 km/h 95 % 1.27 mm 33.00 W/m2
12:51 8.3 °C 7.6 °C 1012.8 hPa South 16.1 km/h 16.1 km/h 95 % 0 mm 37.00 W/m2
12:56 8.3 °C 7.6 °C 1012.8 hPa SSW 8 km/h 38.6 km/h 95 % 8.89 mm 72.00 W/m2
13:01 8.3 °C 7.6 °C 1012.8 hPa SW 35.4 km/h 45.1 km/h 95 % 2.54 mm 37.00 W/m2
13:06 8.3 °C 7.6 °C 1012.8 hPa SSW 17.7 km/h 37 km/h 95 % 2.54 mm 49.00 W/m2
13:11 8.3 °C 7.5 °C 1012.8 hPa SSW 19.3 km/h 38.6 km/h 95 % 1.52 mm 58.00 W/m2
13:16 8.3 °C 7.5 °C 1012.8 hPa SSW 32.2 km/h 32.2 km/h 95 % 5.33 mm 54.00 W/m2
13:21 8.3 °C 7.5 °C 1013.1 hPa SSW 22.5 km/h 33.8 km/h 95 % 2.29 mm 39.00 W/m2
13:26 8.3 °C 7.5 °C 1013.1 hPa South 3.2 km/h 32.2 km/h 95 % 3.56 mm 44.00 W/m2
13:31 8.3 °C 7.6 °C 1012.8 hPa SSW 19.3 km/h 25.7 km/h 95 % 5.59 mm 28.00 W/m2
13:36 8.3 °C 7.6 °C 1012.8 hPa South 8 km/h 9.7 km/h 95 % 9.4 mm 33.00 W/m2
13:41 8.3 °C 7.6 °C 1012.8 hPa South 16.1 km/h 40.2 km/h 95 % 6.1 mm 26.00 W/m2
13:46 8.3 °C 7.5 °C 1012.8 hPa South 11.3 km/h 32.2 km/h 95 % 3.81 mm 23.00 W/m2
13:51 8.3 °C 7.5 °C 1012.8 hPa South 17.7 km/h 40.2 km/h 95 % 4.83 mm 26.00 W/m2
13:56 8.3 °C 7.5 °C 1012.8 hPa SSW 17.7 km/h 46.7 km/h 95 % 2.54 mm 18.00 W/m2
14:01 8.3 °C 7.5 °C 1012.8 hPa South 17.7 km/h 35.4 km/h 95 % 11.18 mm 28.00 W/m2
14:06 8.3 °C 7.5 °C 1012.8 hPa SSW 16.1 km/h 38.6 km/h 95 % 4.83 mm 21.00 W/m2
14:11 8.2 °C 7.5 °C 1012.8 hPa SSE 20.9 km/h 43.5 km/h 95 % 4.32 mm 32.00 W/m2
14:16 8.2 °C 7.5 °C 1012.8 hPa South 27.4 km/h 27.4 km/h 95 % 4.83 mm 23.00 W/m2
14:21 8.2 °C 7.5 °C 1012.8 hPa SSW 22.5 km/h 40.2 km/h 95 % 6.1 mm 21.00 W/m2
14:26 8.2 °C 7.5 °C 1012.8 hPa South 11.3 km/h 40.2 km/h 95 % 3.81 mm 25.00 W/m2
14:31 8.2 °C 7.5 °C 1012.8 hPa SW 16.1 km/h 49.9 km/h 95 % 2.03 mm 19.00 W/m2
14:36 8.2 °C 7.5 °C 1012.8 hPa South 8 km/h 38.6 km/h 95 % 3.3 mm 23.00 W/m2
14:41 8.2 °C 7.5 °C 1012.8 hPa South 12.9 km/h 35.4 km/h 95 % 2.54 mm 28.00 W/m2
14:46 8.2 °C 7.5 °C 1012.8 hPa SSW 17.7 km/h 17.7 km/h 95 % 1.52 mm 21.00 W/m2
14:51 8.3 °C 7.5 °C 1012.8 hPa South 3.2 km/h 32.2 km/h 95 % 11.68 mm 23.00 W/m2
14:56 8.3 °C 7.5 °C 1012.8 hPa South 30.6 km/h 38.6 km/h 95 % 8.38 mm 32.00 W/m2
15:01 8.3 °C 7.6 °C 1012.8 hPa SSE 8 km/h 43.5 km/h 95 % 14.22 mm 16.00 W/m2
15:06 8.3 °C 7.6 °C 1012.8 hPa SSW 20.9 km/h 24.1 km/h 95 % 4.57 mm 19.00 W/m2
15:11 8.4 °C 7.6 °C 1012.8 hPa South 27.4 km/h 27.4 km/h 95 % 3.56 mm 12.00 W/m2
15:16 8.4 °C 7.6 °C 1012.8 hPa SSW 3.2 km/h 33.8 km/h 95 % 4.83 mm 12.00 W/m2
15:21 8.4 °C 7.6 °C 1012.8 hPa SSW 12.9 km/h 35.4 km/h 95 % 6.35 mm 19.00 W/m2
15:26 8.4 °C 7.6 °C 1012.8 hPa South 20.9 km/h 37 km/h 95 % 4.06 mm 21.00 W/m2
15:31 8.3 °C 7.6 °C 1012.8 hPa South 14.5 km/h 46.7 km/h 95 % 4.32 mm 14.00 W/m2
15:36 8.3 °C 7.6 °C 1012.8 hPa South 19.3 km/h 43.5 km/h 95 % 3.05 mm 9.00 W/m2
15:41 8.3 °C 7.6 °C 1012.8 hPa SSE 17.7 km/h 35.4 km/h 95 % 2.29 mm 11.00 W/m2
15:46 8.3 °C 7.5 °C 1012.8 hPa SSE 27.4 km/h 27.4 km/h 95 % 2.03 mm 9.00 W/m2
15:51 8.2 °C 7.5 °C 1013.1 hPa SSE 29 km/h 43.5 km/h 95 % 7.37 mm 9.00 W/m2
15:56 8.2 °C 7.4 °C 1012.8 hPa South 11.3 km/h 37 km/h 95 % 8.38 mm 7.00 W/m2
16:01 8.2 °C 7.4 °C 1012.4 hPa SSW 8 km/h 45.1 km/h 95 % 4.32 mm 5.00 W/m2
16:06 8.1 °C 7.3 °C 1012.4 hPa South 33.8 km/h 38.6 km/h 95 % 7.11 mm 9.00 W/m2
16:11 8.1 °C 7.3 °C 1012.4 hPa SSE 41.8 km/h 48.3 km/h 95 % 3.81 mm 7.00 W/m2
16:16 8.1 °C 7.3 °C 1012.8 hPa SSE 12.9 km/h 48.3 km/h 95 % 3.81 mm 7.00 W/m2
16:21 8 °C 7.2 °C 1012.8 hPa South 27.4 km/h 38.6 km/h 95 % 10.16 mm 5.00 W/m2
16:26 7.9 °C 7.2 °C 1012.4 hPa South 24.1 km/h 24.1 km/h 95 % 9.14 mm 0.00 W/m2
16:31 7.9 °C 7.2 °C 1012.4 hPa South 9.7 km/h 33.8 km/h 95 % 8.64 mm 0.00 W/m2
16:36 7.9 °C 7.2 °C 1012.4 hPa SSW 38.6 km/h 45.1 km/h 95 % 8.38 mm 0.00 W/m2
16:41 7.9 °C 7.2 °C 1012.4 hPa South 11.3 km/h 40.2 km/h 95 % 9.14 mm 5.00 W/m2
16:46 7.9 °C 7.2 °C 1012.4 hPa SSW 38.6 km/h 46.7 km/h 95 % 6.86 mm 0.00 W/m2
16:51 7.9 °C 7.1 °C 1012.8 hPa SSW 20.9 km/h 20.9 km/h 95 % 4.06 mm 0.00 W/m2
16:56 7.8 °C 7.1 °C 1012.8 hPa SSE 40.2 km/h 40.2 km/h 95 % 5.33 mm 0.00 W/m2
17:01 7.8 °C 7.1 °C 1012.4 hPa SE 16.1 km/h 30.6 km/h 95 % 9.4 mm 0.00 W/m2
17:06 7.9 °C 7.1 °C 1012.8 hPa South 11.3 km/h 11.3 km/h 95 % 4.32 mm 0.00 W/m2
17:11 7.9 °C 7.2 °C 1012.4 hPa SSE 16.1 km/h 16.1 km/h 95 % 4.06 mm 0.00 W/m2
17:16 7.9 °C 7.2 °C 1012.8 hPa South 38.6 km/h 38.6 km/h 95 % 4.32 mm 0.00 W/m2
17:21 7.9 °C 7.2 °C 1012.8 hPa SSW 37 km/h 40.2 km/h 95 % 4.57 mm 0.00 W/m2
17:26 7.9 °C 7.2 °C 1012.8 hPa SSW 19.3 km/h 20.9 km/h 95 % 3.81 mm 0.00 W/m2
17:31 7.9 °C 7.2 °C 1012.8 hPa South 25.7 km/h 29 km/h 95 % 5.59 mm 0.00 W/m2
17:36 8 °C 7.2 °C 1012.8 hPa SW 20.9 km/h 20.9 km/h 95 % 4.06 mm 0.00 W/m2
17:41 8 °C 7.2 °C 1012.8 hPa SSW 38.6 km/h 41.8 km/h 95 % 3.56 mm 0.00 W/m2
17:46 8 °C 7.2 °C 1012.8 hPa South 24.1 km/h 25.7 km/h 95 % 4.32 mm 0.00 W/m2
17:51 7.9 °C 7.2 °C 1012.8 hPa SSW 37 km/h 41.8 km/h 95 % 5.59 mm 0.00 W/m2
17:56 7.9 °C 7.2 °C 1013.1 hPa SSW 16.1 km/h 19.3 km/h 95 % 4.83 mm 0.00 W/m2
18:01 7.9 °C 7.2 °C 1012.8 hPa SSE 16.1 km/h 25.7 km/h 95 % 4.32 mm 0.00 W/m2
18:06 7.8 °C 7.1 °C 1012.8 hPa SSE 22.5 km/h 22.5 km/h 95 % 10.92 mm 0.00 W/m2
18:11 7.7 °C 6.9 °C 1013.1 hPa SSE 9.7 km/h 14.5 km/h 95 % 6.86 mm 0.00 W/m2
18:16 7.7 °C 6.9 °C 1013.1 hPa SSE 11.3 km/h 19.3 km/h 95 % 4.57 mm 0.00 W/m2
18:21 7.6 °C 6.8 °C 1013.1 hPa SW 17.7 km/h 17.7 km/h 95 % 5.33 mm 0.00 W/m2
18:26 7.5 °C 6.8 °C 1012.8 hPa Calm   1.6 km/h 95 % 4.83 mm 0.00 W/m2
18:31 7.5 °C 6.8 °C 1012.8 hPa SSE 11.3 km/h 11.3 km/h 95 % 6.1 mm 0.00 W/m2
18:36 7.6 °C 6.8 °C 1013.1 hPa South 11.3 km/h 19.3 km/h 95 % 3.81 mm 0.00 W/m2
18:41 7.6 °C 6.8 °C 1013.1 hPa SSE 12.9 km/h 20.9 km/h 95 % 16.51 mm 0.00 W/m2
18:46 7.5 °C 6.8 °C 1013.4 hPa SW 25.7 km/h 41.8 km/h 95 % 9.65 mm 0.00 W/m2
18:51 7.5 °C 6.8 °C 1013.1 hPa South 12.9 km/h 14.5 km/h 95 % 4.83 mm 0.00 W/m2
18:56 7.5 °C 6.8 °C 1013.1 hPa SSW 9.7 km/h 22.5 km/h 95 % 3.81 mm 0.00 W/m2
19:01 7.5 °C 6.8 °C 1013.1 hPa SE 33.8 km/h 40.2 km/h 95 % 3.81 mm 0.00 W/m2
19:06 7.4 °C 6.7 °C 1013.1 hPa SSW 16.1 km/h 20.9 km/h 95 % 3.81 mm 0.00 W/m2
19:11 7.4 °C 6.7 °C 1013.4 hPa SSE 16.1 km/h 20.9 km/h 95 % 4.83 mm 0.00 W/m2
19:16 7.4 °C 6.7 °C 1013.4 hPa SSE 27.4 km/h 33.8 km/h 95 % 3.81 mm 0.00 W/m2
19:21 7.3 °C 6.6 °C 1013.1 hPa SSE 14.5 km/h 37 km/h 95 % 4.32 mm 0.00 W/m2
19:26 7.3 °C 6.6 °C 1013.4 hPa South 16.1 km/h 35.4 km/h 95 % 5.59 mm 0.00 W/m2
19:31 7.3 °C 6.6 °C 1013.1 hPa South 32.2 km/h 38.6 km/h 95 % 5.84 mm 0.00 W/m2
19:36 7.2 °C 6.5 °C 1013.1 hPa SE 17.7 km/h 27.4 km/h 95 % 6.1 mm 0.00 W/m2
19:41 7.2 °C 6.4 °C 1013.4 hPa SSE 9.7 km/h 25.7 km/h 95 % 6.1 mm 0.00 W/m2
19:46 7.2 °C 6.4 °C 1013.8 hPa South 29 km/h 29 km/h 95 % 6.35 mm 0.00 W/m2
19:51 7.1 °C 6.3 °C 1014.1 hPa South 14.5 km/h 14.5 km/h 95 % 11.43 mm 0.00 W/m2
19:56 7.1 °C 6.3 °C 1013.8 hPa SSW 29 km/h 35.4 km/h 95 % 7.11 mm 0.00 W/m2
20:01 7 °C 6.3 °C 1013.8 hPa SSE 20.9 km/h 30.6 km/h 95 % 5.59 mm 0.00 W/m2
20:06 7 °C 6.3 °C 1013.8 hPa SSW 38.6 km/h 48.3 km/h 95 % 6.6 mm 0.00 W/m2
20:11 7.1 °C 6.3 °C 1013.8 hPa SSW 30.6 km/h 41.8 km/h 95 % 5.84 mm 0.00 W/m2
20:16 7.1 °C 6.3 °C 1013.8 hPa SSW 11.3 km/h 12.9 km/h 95 % 4.83 mm 0.00 W/m2
20:21 7.1 °C 6.3 °C 1013.8 hPa SSW 25.7 km/h 37 km/h 95 % 3.56 mm 0.00 W/m2
20:26 7.1 °C 6.3 °C 1013.8 hPa SSE 24.1 km/h 27.4 km/h 95 % 3.3 mm 0.00 W/m2
20:31 7.1 °C 6.4 °C 1013.8 hPa SE 22.5 km/h 22.5 km/h 95 % 4.57 mm 0.00 W/m2
20:36 7.1 °C 6.3 °C 1013.4 hPa South 9.7 km/h 16.1 km/h 95 % 3.3 mm 0.00 W/m2
20:41 7 °C 6.3 °C 1013.8 hPa SSW 16.1 km/h 32.2 km/h 95 % 4.83 mm 0.00 W/m2
20:46 7 °C 6.3 °C 1013.8 hPa SSE 14.5 km/h 16.1 km/h 95 % 2.54 mm 0.00 W/m2
20:51 7.1 °C 6.3 °C 1013.8 hPa WSW 25.7 km/h 45.1 km/h 95 % 3.56 mm 0.00 W/m2
20:56 7.1 °C 6.3 °C 1013.8 hPa SW 27.4 km/h 29 km/h 95 % 3.81 mm 0.00 W/m2
21:01 7.1 °C 6.3 °C 1013.8 hPa SSE 38.6 km/h 40.2 km/h 95 % 3.56 mm 0.00 W/m2
21:06 7.1 °C 6.4 °C 1013.8 hPa SSW 19.3 km/h 29 km/h 95 % 3.3 mm 0.00 W/m2
21:11 7.1 °C 6.3 °C 1013.8 hPa SSE 14.5 km/h 40.2 km/h 95 % 3.05 mm 0.00 W/m2
21:16 7.1 °C 6.3 °C 1013.8 hPa SE 24.1 km/h 38.6 km/h 95 % 3.3 mm 0.00 W/m2
21:21 7 °C 6.3 °C 1013.8 hPa South 17.7 km/h 30.6 km/h 95 % 3.05 mm 0.00 W/m2
21:26 6.9 °C 6.2 °C 1013.8 hPa SSE 30.6 km/h 30.6 km/h 95 % 1.78 mm 0.00 W/m2
21:31 6.9 °C 6.2 °C 1013.8 hPa South 14.5 km/h 27.4 km/h 95 % 1.78 mm 0.00 W/m2
21:36 6.8 °C 6.1 °C 1013.8 hPa SSE 22.5 km/h 27.4 km/h 95 % 2.54 mm 0.00 W/m2
21:41 6.8 °C 6.1 °C 1013.4 hPa South 20.9 km/h 33.8 km/h 95 % 2.54 mm 0.00 W/m2
21:46 6.8 °C 6.1 °C 1013.4 hPa South 12.9 km/h 30.6 km/h 95 % 3.56 mm 0.00 W/m2
21:51 6.8 °C 6.1 °C 1013.4 hPa South 14.5 km/h 20.9 km/h 95 % 2.54 mm 0.00 W/m2
21:56 6.7 °C 6 °C 1013.4 hPa SSE 32.2 km/h 35.4 km/h 95 % 2.54 mm 0.00 W/m2
22:01 6.7 °C 5.9 °C 1013.4 hPa SSE 27.4 km/h 38.6 km/h 95 % 3.05 mm 0.00 W/m2
22:06 6.7 °C 5.9 °C 1013.4 hPa SSE 17.7 km/h 25.7 km/h 95 % 2.54 mm 0.00 W/m2
22:11 6.6 °C 5.9 °C 1013.4 hPa SSE 33.8 km/h 38.6 km/h 95 % 2.54 mm 0.00 W/m2
22:16 6.6 °C 5.9 °C 1013.4 hPa South 12.9 km/h 30.6 km/h 95 % 2.29 mm 0.00 W/m2
22:21 6.6 °C 5.8 °C 1013.4 hPa South 12.9 km/h 22.5 km/h 95 % 4.06 mm 0.00 W/m2
22:26 6.6 °C 5.8 °C 1013.4 hPa SSE 40.2 km/h 45.1 km/h 95 % 3.81 mm 0.00 W/m2
22:31 6.5 °C 5.8 °C 1013.1 hPa SE 14.5 km/h 43.5 km/h 95 % 2.54 mm 0.00 W/m2
22:36 6.4 °C 5.7 °C 1013.1 hPa South 17.7 km/h 27.4 km/h 95 % 3.3 mm 0.00 W/m2
22:41 6.4 °C 5.7 °C 1013.1 hPa SSE 14.5 km/h 30.6 km/h 95 % 3.3 mm 0.00 W/m2
22:46 6.4 °C 5.7 °C 1013.1 hPa SSE 14.5 km/h 41.8 km/h 95 % 2.54 mm 0.00 W/m2
22:51 6.4 °C 5.7 °C 1013.1 hPa SSE 8 km/h 25.7 km/h 95 % 2.54 mm 0.00 W/m2
22:56 6.4 °C 5.7 °C 1012.8 hPa SSW 29 km/h 41.8 km/h 95 % 2.54 mm 0.00 W/m2
23:01 6.3 °C 5.6 °C 1013.1 hPa SE 35.4 km/h 35.4 km/h 95 % 2.03 mm 0.00 W/m2
23:06 6.3 °C 5.6 °C 1013.1 hPa SE 20.9 km/h 24.1 km/h 95 % 2.03 mm 0.00 W/m2
23:11 6.3 °C 5.6 °C 1013.1 hPa SE 20.9 km/h 30.6 km/h 95 % 1.78 mm 0.00 W/m2
23:16 6.3 °C 5.6 °C 1013.1 hPa SE 16.1 km/h 27.4 km/h 95 % 1.78 mm 0.00 W/m2
23:21 6.3 °C 5.6 °C 1012.8 hPa SSE 14.5 km/h 20.9 km/h 95 % 1.52 mm 0.00 W/m2
23:26 6.3 °C 5.6 °C 1012.8 hPa SSE 6.4 km/h 20.9 km/h 95 % 1.52 mm 0.00 W/m2
23:31 6.2 °C 5.5 °C 1012.8 hPa South 19.3 km/h 20.9 km/h 95 % 1.52 mm 0.00 W/m2
23:36 6.2 °C 5.5 °C 1012.8 hPa South 29 km/h 32.2 km/h 95 % 1.27 mm 0.00 W/m2
23:41 6.2 °C 5.4 °C 1012.4 hPa South 19.3 km/h 22.5 km/h 95 % 1.27 mm 0.00 W/m2
23:46 6.2 °C 5.4 °C 1012.4 hPa SSE 12.9 km/h 33.8 km/h 95 % 1.78 mm 0.00 W/m2
23:51 6.2 °C 5.4 °C 1012.1 hPa SSE 16.1 km/h 19.3 km/h 95 % 1.78 mm 0.00 W/m2
23:56 6.1 °C 5.4 °C 1012.1 hPa SSE 14.5 km/h 20.9 km/h 95 % 1.27 mm 0.00 W/m2
Juneau County Weather
Compliments of Weather Underground - 4.5 mb
 WU-history PHP script courtesy of   Juneau County Weather.
powered by Cumulus v1.9.3 (1059)
Ambient Weather VWS v14.00
Top Contact Website Map Copyright © 2007 - 2018 Foresthillweather.com Never base important decisions on this or any weather information obtained from the Internet